| time (UTC) | temp C | wind direction | speed KPH | gust KPH | rain 1hr cm | rain 24hr cm | rain mn cm | humidity % | barometer mb |
| 20260503034004 | 15 | 147 | 0.0 | 0.0 | 0.00 | 0.00 | 0.00 | 37 | 1012.5 |
| 20260503033507 | 15 | 147 | 0.0 | 0.0 | 0.00 | 0.00 | 0.00 | 36 | 1012.4 |
| 20260503033029 | 15 | 147 | 0.0 | 0.0 | 0.00 | 0.00 | 0.00 | 35 | 1012.5 |
| 20260503032507 | 15 | 147 | 0.0 | 0.0 | 0.00 | 0.00 | 0.00 | 34 | 1012.4 |
| 20260503032009 | 15 | 147 | 0.0 | 0.0 | 0.00 | 0.00 | 0.00 | 33 | 1012.3 |
| 20260503031520 | 16 | 147 | 0.0 | 0.0 | 0.00 | 0.00 | 0.00 | 33 | 1012.2 |
| 20260503031008 | 16 | 147 | 0.0 | 0.0 | 0.00 | 0.00 | 0.00 | 32 | 1012.1 |
| 20260503030507 | 16 | 147 | 0.0 | 0.0 | 0.00 | 0.00 | 0.00 | 32 | 1012.1 |
| 20260503030044 | 17 | 147 | 0.0 | 0.0 | 0.00 | 0.00 | 0.00 | 32 | 1012.0 |
| 20260503025507 | 17 | 147 | 0.0 | 0.0 | 0.00 | 0.00 | 0.00 | 31 | 1011.9 |
| 20260503025002 | 17 | 147 | 0.0 | 0.0 | 0.00 | 0.00 | 0.00 | 30 | 1012.0 |
| 20260503024510 | 18 | 147 | 0.0 | 0.0 | 0.00 | 0.00 | 0.00 | 29 | 1011.9 |
| 20260503024002 | 18 | 147 | 0.0 | 0.0 | 0.00 | 0.00 | 0.00 | 29 | 1011.9 |
| 20260503023506 | 18 | 147 | 0.0 | 0.0 | 0.00 | 0.00 | 0.00 | 29 | 1011.9 |
| 20260503023014 | 18 | 147 | 0.0 | 0.0 | 0.00 | 0.00 | 0.00 | 31 | 1011.9 |
| 20260503022505 | 18 | 147 | 0.0 | 0.0 | 0.00 | 0.00 | 0.00 | 28 | 1011.8 |
| 20260503022008 | 18 | 147 | 0.0 | 0.0 | 0.00 | 0.00 | 0.00 | 29 | 1011.8 |
| 20260503021525 | 18 | 147 | 0.0 | 0.0 | 0.00 | 0.00 | 0.00 | 29 | 1011.9 |
| 20260503021005 | 19 | 147 | 0.0 | 0.0 | 0.00 | 0.00 | 0.00 | 28 | 1011.8 |
| 20260503020507 | 19 | 147 | 0.0 | 1.6 | 0.00 | 0.00 | 0.00 | 27 | 1011.9 |
| 20260503020025 | 19 | 147 | 0.0 | 1.6 | 0.00 | 0.00 | 0.00 | 27 | 1011.9 |
| 20260503015507 | 19 | 141 | 0.0 | 1.6 | 0.00 | 0.00 | 0.00 | 27 | 1011.9 |
| 20260503015009 | 20 | 141 | 0.0 | 1.6 | 0.00 | 0.00 | 0.00 | 26 | 1012.0 |
| 20260503014529 | 20 | 141 | 0.0 | 3.2 | 0.00 | 0.00 | 0.00 | 26 | 1011.9 |
| 20260503014009 | 20 | 149 | 0.0 | 4.8 | 0.00 | 0.00 | 0.00 | 25 | 1012.0 |
| 20260503013510 | 21 | 96 | 1.6 | 4.8 | 0.00 | 0.00 | 0.00 | 24 | 1012.1 |
| 20260503013013 | 21 | 159 | 0.0 | 4.8 | 0.00 | 0.00 | 0.00 | 26 | 1012.2 |
| 20260503012503 | 21 | 195 | 0.0 | 4.8 | 0.00 | 0.00 | 0.00 | 25 | 1012.3 |
| 20260503012006 | 20 | 185 | 3.2 | 6.4 | 0.00 | 0.00 | 0.00 | 25 | 1012.4 |
| 20260503011516 | 20 | 223 | 3.2 | 8.0 | 0.00 | 0.00 | 0.00 | 26 | 1012.4 |
| 20260503011012 | 20 | 229 | 3.2 | 9.7 | 0.00 | 0.00 | 0.00 | 26 | 1012.5 |
| 20260503010512 | 20 | 212 | 4.8 | 9.7 | 0.00 | 0.00 | 0.00 | 26 | 1012.6 |
| 20260503010021 | 21 | 206 | 4.8 | 9.7 | 0.00 | 0.00 | 0.00 | 25 | 1012.5 |
| 20260503005507 | 21 | 176 | 3.2 | 8.0 | 0.00 | 0.00 | 0.00 | 25 | 1012.7 |
| 20260503005007 | 21 | 220 | 3.2 | 8.0 | 0.00 | 0.00 | 0.00 | 25 | 1012.7 |
| 20260503004549 | 20 | 227 | 1.6 | 8.0 | 0.00 | 0.00 | 0.00 | 25 | 1012.8 |
| 20260503004010 | 20 | 261 | 3.2 | 16.1 | 0.00 | 0.00 | 0.00 | 25 | 1012.9 |
| 20260503003509 | 20 | 203 | 6.4 | 16.1 | 0.00 | 0.00 | 0.00 | 25 | 1013.0 |
| 20260503003028 | 21 | 215 | 6.4 | 16.1 | 0.00 | 0.00 | 0.00 | 24 | 1013.1 |
| 20260503002510 | 21 | 164 | 3.2 | 12.9 | 0.00 | 0.00 | 0.00 | 26 | 1013.1 |
| 20260503002013 | 21 | 203 | 3.2 | 12.9 | 0.00 | 0.00 | 0.00 | 26 | 1013.2 |
| 20260503001526 | 21 | 154 | 3.2 | 12.9 | 0.00 | 0.00 | 0.00 | 27 | 1013.3 |
| 20260503001006 | 20 | 210 | 4.8 | 16.1 | 0.00 | 0.00 | 0.00 | 26 | 1013.3 |
| 20260503000507 | 21 | 244 | 9.7 | 17.7 | 0.00 | 0.00 | 0.00 | 25 | 1013.4 |
| 20260503000029 | 21 | 224 | 6.4 | 17.7 | 0.00 | 0.00 | 0.00 | 26 | 1013.4 |
| 20260502235502 | 21 | 218 | 6.4 | 16.1 | 0.00 | 0.00 | 0.00 | 25 | 1013.6 |
| 20260502235002 | 20 | 260 | 3.2 | 11.3 | 0.00 | 0.00 | 0.00 | 26 | 1013.6 |
| 20260502234504 | 21 | 306 | 6.4 | 11.3 | 0.00 | 0.00 | 0.00 | 25 | 1013.7 |
| 20260502234004 | 21 | 219 | 3.2 | 16.1 | 0.00 | 0.00 | 0.00 | 26 | 1013.7 |
| 20260502233504 | 21 | 250 | 6.4 | 16.1 | 0.00 | 0.00 | 0.00 | 26 | 1013.8 |
| 20260502233008 | 21 | 142 | 1.6 | 9.7 | 0.00 | 0.00 | 0.00 | 28 | 1013.9 |
| 20260502232503 | 20 | 238 | 4.8 | 14.5 | 0.00 | 0.00 | 0.00 | 28 | 1014.0 |
| 20260502232003 | 20 | 266 | 6.4 | 14.5 | 0.00 | 0.00 | 0.00 | 28 | 1014.0 |
| 20260502231509 | 20 | 285 | 4.8 | 11.3 | 0.00 | 0.00 | 0.00 | 28 | 1014.0 |
| 20260502231005 | 20 | 242 | 4.8 | 12.9 | 0.00 | 0.00 | 0.00 | 29 | 1014.1 |
| 20260502230504 | 20 | 297 | 3.2 | 12.9 | 0.00 | 0.00 | 0.00 | 27 | 1014.1 |
| 20260502230016 | 20 | 232 | 4.8 | 12.9 | 0.00 | 0.00 | 0.00 | 27 | 1014.3 |
| 20260502225508 | 20 | 256 | 6.4 | 12.9 | 0.00 | 0.00 | 0.00 | 28 | 1014.3 |
| 20260502225008 | 20 | 234 | 3.2 | 17.7 | 0.00 | 0.00 | 0.00 | 28 | 1014.4 |
| 20260502224519 | 20 | 250 | 9.7 | 17.7 | 0.00 | 0.00 | 0.00 | 27 | 1014.5 |
| 20260502224007 | 20 | 219 | 6.4 | 14.5 | 0.00 | 0.00 | 0.00 | 28 | 1014.6 |
| 20260502223503 | 20 | 219 | 6.4 | 11.3 | 0.00 | 0.00 | 0.00 | 29 | 1014.7 |
| 20260502223006 | 20 | 136 | 0.0 | 6.4 | 0.00 | 0.00 | 0.00 | 30 | 1014.8 |
| 20260502222504 | 19 | 348 | 1.6 | 8.0 | 0.00 | 0.00 | 0.00 | 30 | 1014.9 |
| 20260502222005 | 19 | 286 | 1.6 | 16.1 | 0.00 | 0.00 | 0.00 | 30 | 1015.0 |
| 20260502221508 | 19 | 232 | 6.4 | 17.7 | 0.00 | 0.00 | 0.00 | 30 | 1015.2 |
| 20260502221004 | 20 | 183 | 4.8 | 17.7 | 0.00 | 0.00 | 0.00 | 30 | 1015.2 |
| 20260502220503 | 20 | 276 | 8.0 | 14.5 | 0.00 | 0.00 | 0.00 | 29 | 1015.3 |
| 20260502220013 | 19 | 175 | 3.2 | 9.7 | 0.00 | 0.00 | 0.00 | 30 | 1015.3 |
| 20260502215506 | 20 | 86 | 4.8 | 9.7 | 0.00 | 0.00 | 0.00 | 29 | 1015.3 |
| 20260502215007 | 19 | 215 | 1.6 | 11.3 | 0.00 | 0.00 | 0.00 | 30 | 1015.4 |
| 20260502214518 | 19 | 187 | 4.8 | 17.7 | 0.00 | 0.00 | 0.00 | 30 | 1015.4 |
| 20260502214007 | 19 | 202 | 6.4 | 20.9 | 0.00 | 0.00 | 0.00 | 30 | 1015.4 |
| 20260502213508 | 19 | 214 | 9.7 | 20.9 | 0.00 | 0.00 | 0.00 | 30 | 1015.6 |
| 20260502213036 | 19 | 238 | 4.8 | 9.7 | 0.00 | 0.00 | 0.00 | 30 | 1015.6 |
| 20260502212507 | 19 | 133 | 4.8 | 11.3 | 0.00 | 0.00 | 0.00 | 29 | 1015.7 |
| 20260502212008 | 19 | 243 | 4.8 | 12.9 | 0.00 | 0.00 | 0.00 | 31 | 1015.8 |
| 20260502211507 | 19 | 214 | 6.4 | 12.9 | 0.00 | 0.00 | 0.00 | 30 | 1016.0 |
| 20260502211004 | 19 | 291 | 6.4 | 12.9 | 0.00 | 0.00 | 0.00 | 30 | 1016.1 |
| 20260502210502 | 18 | 199 | 4.8 | 17.7 | 0.00 | 0.00 | 0.00 | 30 | 1016.2 |
| 20260502210010 | 18 | 228 | 4.8 | 17.7 | 0.00 | 0.00 | 0.00 | 30 | 1016.3 |
| 20260502205504 | 18 | 272 | 1.6 | 12.9 | 0.00 | 0.00 | 0.00 | 31 | 1016.3 |
| 20260502205004 | 18 | 212 | 3.2 | 9.7 | 0.00 | 0.00 | 0.00 | 31 | 1016.4 |
| 20260502204514 | 18 | 207 | 3.2 | 17.7 | 0.00 | 0.00 | 0.00 | 30 | 1016.5 |
| 20260502204007 | 18 | 272 | 8.0 | 17.7 | 0.00 | 0.00 | 0.00 | 31 | 1016.5 |
| 20260502203504 | 18 | 223 | 6.4 | 12.9 | 0.00 | 0.00 | 0.00 | 30 | 1016.6 |
| 20260502203019 | 18 | 288 | 8.0 | 12.9 | 0.00 | 0.00 | 0.00 | 32 | 1016.6 |
| 20260502202507 | 18 | 245 | 6.4 | 12.9 | 0.00 | 0.00 | 0.00 | 31 | 1016.7 |
| 20260502202007 | 18 | 56 | 1.6 | 9.7 | 0.00 | 0.00 | 0.00 | 31 | 1016.8 |
| 20260502201530 | 18 | 238 | 3.2 | 14.5 | 0.00 | 0.00 | 0.00 | 31 | 1016.8 |
| 20260502201006 | 18 | 288 | 4.8 | 14.5 | 0.00 | 0.00 | 0.00 | 31 | 1016.9 |
| 20260502200512 | 18 | 227 | 6.4 | 14.5 | 0.00 | 0.00 | 0.00 | 31 | 1016.9 |
| 20260502200026 | 18 | 170 | 3.2 | 11.3 | 0.00 | 0.00 | 0.00 | 33 | 1017.0 |
| 20260502195504 | 18 | 260 | 4.8 | 12.9 | 0.00 | 0.00 | 0.00 | 32 | 1017.1 |
| 20260502195004 | 17 | 206 | 3.2 | 17.7 | 0.00 | 0.00 | 0.00 | 33 | 1017.1 |
| 20260502194513 | 17 | 226 | 6.4 | 17.7 | 0.00 | 0.00 | 0.00 | 33 | 1017.2 |
| 20260502194007 | 17 | 248 | 9.7 | 16.1 | 0.00 | 0.00 | 0.00 | 32 | 1017.3 |
| 20260502193507 | 17 | 318 | 3.2 | 6.4 | 0.00 | 0.00 | 0.00 | 33 | 1017.4 |
| 20260502193016 | 17 | 268 | 3.2 | 14.5 | 0.00 | 0.00 | 0.00 | 33 | 1017.5 |
| 20260502192508 | 17 | 277 | 4.8 | 16.1 | 0.00 | 0.00 | 0.00 | 32 | 1017.6 |
| 20260502192007 | 18 | 223 | 8.0 | 16.1 | 0.00 | 0.00 | 0.00 | 33 | 1017.7 |
| 20260502191523 | 17 | 162 | 6.4 | 12.9 | 0.00 | 0.00 | 0.00 | 33 | 1017.7 |
| 20260502191010 | 17 | 233 | 3.2 | 12.9 | 0.00 | 0.00 | 0.00 | 33 | 1017.9 |
| 20260502190508 | 17 | 230 | 4.8 | 14.5 | 0.00 | 0.00 | 0.00 | 33 | 1018.1 |
| 20260502190026 | 17 | 211 | 8.0 | 14.5 | 0.00 | 0.00 | 0.00 | 34 | 1018.2 |
| 20260502185507 | 17 | 221 | 1.6 | 4.8 | 0.00 | 0.00 | 0.00 | 36 | 1018.3 |
| 20260502185008 | 17 | 36 | 3.2 | 12.9 | 0.00 | 0.00 | 0.00 | 34 | 1018.3 |
| 20260502184526 | 17 | 233 | 4.8 | 12.9 | 0.00 | 0.00 | 0.00 | 36 | 1018.4 |
| 20260502184008 | 17 | 122 | 8.0 | 19.3 | 0.00 | 0.00 | 0.00 | 35 | 1018.4 |
| 20260502183504 | 16 | 262 | 3.2 | 19.3 | 0.00 | 0.00 | 0.00 | 36 | 1018.5 |
| 20260502183014 | 16 | 271 | 3.2 | 12.9 | 0.00 | 0.00 | 0.00 | 35 | 1018.6 |
| 20260502182504 | 17 | 129 | 6.4 | 12.9 | 0.00 | 0.00 | 0.00 | 34 | 1018.7 |
| 20260502182007 | 16 | 122 | 3.2 | 12.9 | 0.00 | 0.00 | 0.00 | 36 | 1018.7 |
| 20260502181520 | 16 | 105 | 1.6 | 4.8 | 0.00 | 0.00 | 0.00 | 35 | 1018.8 |
| 20260502181007 | 16 | 230 | 3.2 | 14.5 | 0.00 | 0.00 | 0.00 | 36 | 1018.9 |
| 20260502180508 | 16 | 250 | 8.0 | 14.5 | 0.00 | 0.00 | 0.00 | 35 | 1019.0 |
| 20260502170507 | 15 | 143 | 3.2 | 9.7 | 0.00 | 0.00 | 0.00 | 39 | 1019.7 |
| 20260502164012 | 15 | 64 | 1.6 | 6.4 | 0.00 | 0.00 | 0.00 | 38 | 1019.9 |
| 20260502163508 | 15 | 136 | 3.2 | 4.8 | 0.00 | 0.00 | 0.00 | 37 | 1020.0 |
| 20260502163011 | 15 | 214 | 1.6 | 6.4 | 0.00 | 0.00 | 0.00 | 39 | 1020.1 |
| 20260502162504 | 15 | 143 | 1.6 | 6.4 | 0.00 | 0.00 | 0.00 | 40 | 1020.2 |
| 20260502162009 | 15 | 227 | 3.2 | 6.4 | 0.00 | 0.00 | 0.00 | 40 | 1020.3 |
| 20260502161511 | 15 | 236 | 0.0 | 6.4 | 0.00 | 0.00 | 0.00 | 42 | 1020.3 |
| 20260502161005 | 15 | 86 | 1.6 | 6.4 | 0.00 | 0.00 | 0.00 | 40 | 1020.3 |
| 20260502160504 | 14 | 202 | 3.2 | 8.0 | 0.00 | 0.00 | 0.00 | 44 | 1020.3 |
| 20260502152009 | 12 | 204 | 1.6 | 4.8 | 0.00 | 0.00 | 0.00 | 57 | 1020.3 |
| 20260502151525 | 12 | 184 | 1.6 | 3.2 | 0.00 | 0.00 | 0.00 | 57 | 1020.5 |
| 20260502151002 | 11 | 182 | 1.6 | 3.2 | 0.00 | 0.00 | 0.00 | 58 | 1020.5 |
| 20260502150502 | 11 | 166 | 0.0 | 4.8 | 0.00 | 0.00 | 0.00 | 59 | 1020.5 |
| 20260502130507 | 5 | 163 | 0.0 | 1.6 | 0.00 | 0.00 | 0.00 | 73 | 1020.6 |
| 20260502123510 | 2 | 127 | 0.0 | 1.6 | 0.00 | 0.00 | 0.00 | 79 | 1020.5 |
| 20260502123016 | 2 | 164 | 0.0 | 0.0 | 0.00 | 0.00 | 0.00 | 80 | 1020.4 |
| 20260502122506 | 2 | 178 | 0.0 | 0.0 | 0.00 | 0.00 | 0.00 | 80 | 1020.5 |
| 20260502122010 | 2 | 178 | 0.0 | 3.2 | 0.00 | 0.00 | 0.00 | 80 | 1020.5 |
| 20260502121522 | 2 | 205 | 0.0 | 3.2 | 0.00 | 0.00 | 0.00 | 81 | 1020.5 |
| 20260502121010 | 2 | 186 | 0.0 | 0.0 | 0.00 | 0.00 | 0.00 | 81 | 1020.4 |
| 20260502120511 | 2 | 186 | 0.0 | 1.6 | 0.00 | 0.00 | 0.00 | 81 | 1020.4 |
| 20260502115501 | 2 | 158 | 0.0 | 1.6 | 0.00 | 0.00 | 0.00 | 81 | 1020.4 |
| 20260502115003 | 2 | 153 | 0.0 | 1.6 | 0.00 | 0.00 | 0.00 | 82 | 1020.5 |
| 20260502114504 | 2 | 151 | 0.0 | 1.6 | 0.00 | 0.00 | 0.00 | 82 | 1020.4 |
| 20260502114002 | 2 | 161 | 0.0 | 0.0 | 0.00 | 0.00 | 0.00 | 81 | 1020.3 |
| 20260502113505 | 2 | 143 | 0.0 | 0.0 | 0.00 | 0.00 | 0.00 | 81 | 1020.3 |
| 20260502113004 | 2 | 143 | 0.0 | 0.0 | 0.00 | 0.00 | 0.00 | 81 | 1020.3 |
| 20260502112502 | 2 | 143 | 0.0 | 0.0 | 0.00 | 0.00 | 0.00 | 80 | 1020.2 |
| 20260502112001 | 2 | 143 | 0.0 | 0.0 | 0.00 | 0.00 | 0.00 | 80 | 1020.3 |
| 20260502111503 | 2 | 143 | 0.0 | 0.0 | 0.00 | 0.00 | 0.00 | 80 | 1020.3 |
| 20260502111003 | 2 | 143 | 0.0 | 0.0 | 0.00 | 0.00 | 0.00 | 79 | 1020.3 |
| 20260502110502 | 2 | 143 | 0.0 | 0.0 | 0.00 | 0.00 | 0.00 | 79 | 1020.3 |
| 20260502110003 | 2 | 143 | 0.0 | 0.0 | 0.00 | 0.00 | 0.00 | 79 | 1020.2 |
| 20260502105503 | 2 | 144 | 0.0 | 0.0 | 0.00 | 0.00 | 0.00 | 79 | 1020.3 |
| 20260502105003 | 2 | 192 | 0.0 | 0.0 | 0.00 | 0.00 | 0.00 | 78 | 1020.3 |
| 20260502104504 | 2 | 192 | 0.0 | 0.0 | 0.00 | 0.00 | 0.00 | 77 | 1020.3 |
| 20260502104002 | 2 | 192 | 0.0 | 0.0 | 0.00 | 0.00 | 0.00 | 76 | 1020.3 |
| 20260502103502 | 3 | 192 | 0.0 | 0.0 | 0.00 | 0.00 | 0.00 | 76 | 1020.3 |
| 20260502103011 | 3 | 192 | 0.0 | 0.0 | 0.00 | 0.00 | 0.00 | 76 | 1020.2 |
| 20260502102502 | 3 | 193 | 0.0 | 0.0 | 0.00 | 0.00 | 0.00 | 76 | 1020.2 |
| 20260502102002 | 3 | 193 | 0.0 | 0.0 | 0.00 | 0.00 | 0.00 | 77 | 1020.1 |
| 20260502101504 | 3 | 193 | 0.0 | 0.0 | 0.00 | 0.00 | 0.00 | 78 | 1020.1 |
| 20260502101002 | 3 | 193 | 0.0 | 0.0 | 0.00 | 0.00 | 0.00 | 78 | 1020.0 |
| 20260502100503 | 2 | 193 | 0.0 | 0.0 | 0.00 | 0.00 | 0.00 | 78 | 1019.9 |
| 20260502091506 | 3 | 62 | 0.0 | 0.0 | 0.00 | 0.00 | 0.00 | 75 | 1019.9 |
| 20260502091003 | 3 | 62 | 0.0 | 1.6 | 0.00 | 0.00 | 0.00 | 74 | 1019.9 |
| 20260502090505 | 3 | 63 | 0.0 | 1.6 | 0.00 | 0.00 | 0.00 | 74 | 1019.9 |
| 20260502071505 | 6 | 340 | 0.0 | 0.0 | 0.00 | 0.00 | 0.00 | 66 | 1019.6 |
| 20260502071003 | 6 | 340 | 0.0 | 0.0 | 0.00 | 0.00 | 0.00 | 65 | 1019.4 |
| 20260502070503 | 7 | 340 | 0.0 | 0.0 | 0.00 | 0.00 | 0.00 | 64 | 1019.4 |
| 20260502070004 | 7 | 340 | 0.0 | 1.6 | 0.00 | 0.00 | 0.00 | 64 | 1019.4 |
| 20260502065502 | 7 | 340 | 0.0 | 1.6 | 0.00 | 0.00 | 0.00 | 63 | 1019.4 |
| 20260502065002 | 7 | 340 | 0.0 | 1.6 | 0.00 | 0.00 | 0.00 | 63 | 1019.4 |
| 20260502064517 | 8 | 340 | 0.0 | 1.6 | 0.00 | 0.00 | 0.00 | 62 | 1019.4 |
| 20260502064004 | 8 | 340 | 0.0 | 1.6 | 0.00 | 0.00 | 0.00 | 62 | 1019.3 |
| 20260502063502 | 8 | 329 | 0.0 | 4.8 | 0.00 | 0.00 | 0.00 | 61 | 1019.3 |
| 20260502063006 | 8 | 329 | 1.6 | 4.8 | 0.00 | 0.00 | 0.00 | 61 | 1019.3 |
| 20260502062504 | 8 | 317 | 1.6 | 4.8 | 0.00 | 0.00 | 0.00 | 61 | 1019.3 |
| 20260502062004 | 8 | 319 | 1.6 | 4.8 | 0.00 | 0.00 | 0.00 | 60 | 1019.3 |
| 20260502061508 | 8 | 6 | 1.6 | 4.8 | 0.00 | 0.00 | 0.00 | 60 | 1019.3 |
| 20260502061003 | 8 | 307 | 1.6 | 3.2 | 0.00 | 0.00 | 0.00 | 60 | 1019.4 |
| 20260502060502 | 9 | 285 | 1.6 | 3.2 | 0.00 | 0.00 | 0.00 | 60 | 1019.3 |
| 20260502060008 | 9 | 298 | 0.0 | 3.2 | 0.00 | 0.00 | 0.00 | 59 | 1019.2 |
| 20260502055502 | 9 | 299 | 0.0 | 3.2 | 0.00 | 0.00 | 0.00 | 59 | 1019.1 |
| 20260502055003 | 10 | 319 | 0.0 | 4.8 | 0.00 | 0.00 | 0.00 | 58 | 1019.1 |
| 20260502054508 | 10 | 317 | 1.6 | 4.8 | 0.00 | 0.00 | 0.00 | 58 | 1019.1 |
| 20260502054004 | 10 | 310 | 1.6 | 4.8 | 0.00 | 0.00 | 0.00 | 58 | 1019.0 |
| 20260502053503 | 10 | 290 | 1.6 | 4.8 | 0.00 | 0.00 | 0.00 | 57 | 1019.1 |
| 20260502053009 | 10 | 297 | 3.2 | 6.4 | 0.00 | 0.00 | 0.00 | 57 | 1018.9 |
| 20260502052505 | 10 | 284 | 3.2 | 6.4 | 0.00 | 0.00 | 0.00 | 56 | 1018.9 |
| 20260502052007 | 10 | 298 | 1.6 | 6.4 | 0.00 | 0.00 | 0.00 | 56 | 1018.8 |
| 20260502051508 | 11 | 337 | 3.2 | 6.4 | 0.00 | 0.00 | 0.00 | 55 | 1018.8 |
| 20260502051002 | 11 | 262 | 1.6 | 3.2 | 0.00 | 0.00 | 0.00 | 55 | 1018.7 |
| 20260502050502 | 11 | 274 | 0.0 | 6.4 | 0.00 | 0.00 | 0.00 | 54 | 1018.6 |
| 20260502050019 | 11 | 280 | 3.2 | 8.0 | 0.00 | 0.00 | 0.00 | 53 | 1018.6 |
| 20260502045504 | 11 | 301 | 3.2 | 8.0 | 0.00 | 0.00 | 0.00 | 53 | 1018.6 |
| 20260502045006 | 11 | 285 | 3.2 | 8.0 | 0.00 | 0.00 | 0.00 | 53 | 1018.6 |
| 20260502044510 | 11 | 262 | 3.2 | 6.4 | 0.00 | 0.00 | 0.00 | 53 | 1018.6 |
| 20260502044007 | 11 | 260 | 1.6 | 6.4 | 0.00 | 0.00 | 0.00 | 53 | 1018.5 |
| 20260502043503 | 11 | 262 | 1.6 | 4.8 | 0.00 | 0.00 | 0.00 | 53 | 1018.5 |
| 20260502043012 | 12 | 264 | 1.6 | 8.0 | 0.00 | 0.00 | 0.00 | 53 | 1018.5 |
| 20260502042503 | 12 | 265 | 3.2 | 8.0 | 0.00 | 0.00 | 0.00 | 52 | 1018.4 |
| 20260502042010 | 12 | 271 | 3.2 | 8.0 | 0.00 | 0.00 | 0.00 | 52 | 1018.4 |
| 20260502041511 | 12 | 271 | 3.2 | 8.0 | 0.00 | 0.00 | 0.00 | 52 | 1018.4 |
| 20260502041003 | 12 | 283 | 3.2 | 8.0 | 0.00 | 0.00 | 0.00 | 52 | 1018.4 |
| 20260502040503 | 12 | 290 | 3.2 | 8.0 | 0.00 | 0.00 | 0.00 | 52 | 1018.4 |
| 20260502040015 | 12 | 276 | 4.8 | 8.0 | 0.00 | 0.00 | 0.00 | 52 | 1018.3 |
| 20260502035503 | 12 | 273 | 3.2 | 8.0 | 0.00 | 0.00 | 0.00 | 52 | 1018.3 |
| 20260502035007 | 11 | 279 | 3.2 | 6.4 | 0.00 | 0.00 | 0.00 | 53 | 1018.2 |
| 20260502034512 | 11 | 259 | 1.6 | 6.4 | 0.00 | 0.00 | 0.00 | 53 | 1018.1 |